Theta_e
301 302 302 302 301 302 305 301 310 304 304 310 307 303 304 310 310 309 310 309 310 314 314 310 312 311 312 311 310 312 309 311 317 319 315 312 311 311 310 312 311 306 307 312
300 300 299 299 297 299 304 300 306 305 305 309 303 304 309 310 309 309 309 309 309 308 312 313 310 311 310 310 310 311 310 309 316 317 314 312 318 314 310 307 306 308 314 313
299 300 298 298 296 302 304 298 302 305 307 307 307 309 310 312 309 309 308 308 307 307 309 307 310 311 312 311 312 312 309 308 308 311 309 311 314 315 313 310 311 313 314 313
299 299 298 298 297 303 301 295 300 300 309 306 305 307 310 312 312 308 308 309 308 308 310 309 310 309 311 311 313 309 308 308 306 308 308 312 312 313 315 315 315 317 316 314
299 298 298 298 297 299 297 297 299 297 298 299 306 304 308 310 309 310 312 311 307 307 309 309 309 308 308 312 308 313 306 308 305 305 307 310 311 310 310 314 314 314 315 315
298 298 298 297 297 296 293 293 294 295 296 299 306 301 303 304 305 309 311 312 309 310 310 309 308 305 303 305 306 306 308 307 305 307 304 306 309 308 308 310 311 313 316 314
298 298 298 297 297 297 296 294 292 295 297 295 297 300 301 303 304 309 308 308 310 308 303 306 304 302 303 303 303 303 303 302 299 300 302 304 305 303 305 307 307 308 310 311
298 298 298 297 297 296 297 294 292 292 294 293 296 297 298 301 300 305 309 303 300 297 306 307 309 307 309 307 305 305 302 302 303 305 303 303 306 308 307 307 308 305 305 306
298 298 298 297 297 296 295 295 294 291 294 294 294 295 294 296 298 305 302 299 297 304 307 307 309 309 309 310 310 306 306 305 307 306 308 310 304 307 305 305 309 306 304 306
297 298 298 297 297 295 295 295 294 294 293 292 292 293 294 293 294 298 297 296 300 302 306 310 309 306 306 310 309 309 310 310 311 310 312 308 304 304 303 310 308 305 307 307
298 298 297 297 296 296 295 295 294 294 291 292 293 293 293 292 291 297 295 299 299 302 307 307 305 306 303 305 305 307 308 307 309 309 312 307 303 307 310 305 304 304 305 306
298 298 298 297 296 295 295 295 295 295 292 292 294 293 294 294 294 292 291 295 300 298 306 305 304 305 304 301 306 301 307 305 306 306 305 302 301 303 301 300 301 301 303 304
297 298 298 296 295 294 295 295 294 295 290 291 292 293 294 294 294 294 293 292 293 295 293 300 304 305 303 304 303 303 302 301 304 305 303 298 298 301 297 296 296 298 302 302
298 299 298 296 294 294 295 295 294 294 291 293 293 294 294 294 294 294 294 293 293 293 292 294 297 301 297 302 301 302 301 299 298 299 299 296 298 297 295 296 295 299 299 300
299 299 297 295 294 294 294 294 294 294 294 295 293 293 294 293 294 294 294 294 292 291 292 293 296 294 295 294 295 296 295 295 295 296 296 296 296 295 296 294 296 298 299 300
298 298 297 295 294 295 295 293 294 294 294 291 293 291 293 293 294 294 293 293 292 292 293 294 295 294 296 297 296 296 294 294 294 298 298 298 297 295 294 296 298 297 299 299
298 297 297 295 294 295 293 294 294 294 294 292 290 289 291 295 294 293 293 293 291 292 292 294 293 294 296 299 299 297 297 298 298 298 296 297 298 298 297 298 298 298 298 298
297 297 297 296 294 293 294 293 294 294 292 288 283 285 291 293 293 297 295 294 292 292 292 293 295 295 295 297 296 298 299 299 297 297 295 295 295 297 298 298 298 298 298 297
297 296 295 293 293 292 294 294 294 294 292 287 285 283 286 290 292 294 298 293 294 291 294 294 295 296 297 299 299 299 299 298 297 295 294 295 294 296 297 296 296 297 299 298
295 294 293 293 293 294 295 293 291 289 289 288 286 291 287 289 290 293 297 295 297 290 295 294 296 297 296 295 296 298 298 296 295 294 294 294 294 295 295 295 295 297 298 297
295 292 292 293 294 293 289 288 289 289 289 291 287 286 287 290 289 290 294 296 294 291 294 297 293 296 296 295 296 296 296 294 293 292 292 292 293 293 293 293 294 292 293 294
295 294 294 293 289 287 287 282 287 290 290 291 290 291 291 291 291 296 298 296 297 293 292 294 294 293 293 294 295 295 294 293 292 291 290 291 291 291 291 291 291 290 290 291
294 292 289 291 286 289 285 288 287 287 288 290 288 286 289 291 291 293 296 299 297 297 299 293 292 292 293 292 293 293 293 293 291 290 290 290 291 291 290 290 290 288 288 289
292 292 291 290 288 287 286 287 286 286 290 290 289 287 292 291 292 294 297 296 301 303 295 292 285 289 292 291 292 291 290 289 288 288 289 288 289 290 290 289 287 286 286 287
291 292 293 289 288 285 281 281 286 289 289 288 288 286 290 288 294 296 296 297 298 298 291 286 286 290 290 290 290 288 287 287 287 289 288 288 288 289 289 289 288 287 285 285
288 286 289 288 288 284 289 288 283 287 288 286 285 284 284 292 295 295 295 287 288 290 283 286 285 290 288 288 287 287 287 287 287 288 288 288 288 289 290 290 289 289 287 286
288 287 289 287 287 288 286 286 288 286 287 287 283 285 287 290 293 293 294 291 289 286 284 283 286 287 286 286 286 287 287 287 287 286 286 287 288 289 290 289 289 288 287 286
Wind_Speed
5 7 9 13 11 4 8 3 2 2 7 1 1 2 4 2 0 3 2 2 4 2 3 5 0 5 1 5 5 4 3 4 4 2 1 3 3 3 4 3 4 1 1 6
3 6 9 12 7 5 7 3 2 3 2 1 2 4 3 0 3 3 3 2 2 6 5 4 3 2 2 6 5 6 5 2 4 2 3 2 3 4 3 3 3 5 3 4
2 6 8 12 6 6 4 3 2 1 1 1 1 3 3 1 2 3 2 2 3 3 3 4 4 2 2 3 2 5 5 3 4 5 4 4 5 5 5 3 2 4 13 11
1 5 7 11 3 7 3 3 1 1 3 2 1 1 2 2 3 3 7 5 5 2 3 3 3 2 3 5 4 4 3 3 2 1 1 2 3 4 9 12 13 10 13 16
1 4 7 9 3 6 5 4 4 2 1 1 1 3 4 3 4 4 3 5 6 5 4 2 4 5 2 3 4 3 4 1 2 4 3 1 4 7 7 13 17 13 18 21
2 4 6 9 7 6 4 3 2 3 3 1 2 0 1 2 2 4 4 2 3 7 2 2 2 1 2 5 6 4 4 4 2 2 2 3 6 9 12 4 5 8 13 19
5 5 7 9 12 4 7 5 5 3 1 3 2 1 2 3 3 2 3 5 3 1 5 0 0 6 6 7 5 3 5 4 2 2 2 2 4 2 1 8 6 7 9 14
8 8 8 9 8 12 13 8 3 3 3 1 3 5 3 2 4 4 3 5 0 3 2 2 3 4 2 3 3 3 3 4 3 3 2 6 2 1 2 2 3 3 5 10
11 9 9 8 7 9 16 12 7 4 6 2 3 2 4 3 3 1 3 3 7 1 3 2 2 3 3 1 2 3 4 5 3 2 1 3 4 2 2 2 2 3 5 8
12 10 8 6 7 10 9 10 6 6 4 2 1 3 2 0 0 1 1 5 6 2 1 2 2 1 2 3 5 3 2 2 3 3 3 6 5 4 5 2 3 6 3 8
13 11 7 6 6 7 6 11 8 5 3 1 4 3 3 2 3 1 3 1 3 4 3 2 1 1 1 2 1 3 5 4 3 1 3 4 5 2 3 4 6 7 10 7
13 10 7 6 7 6 8 7 14 15 8 4 4 10 8 4 1 2 2 3 3 1 1 2 2 2 3 1 1 3 0 2 1 6 4 1 5 4 4 2 4 6 9 16
14 12 8 6 8 5 14 17 19 17 4 4 4 3 6 7 2 3 3 2 1 3 1 2 1 1 2 1 2 3 2 4 1 5 3 8 5 2 4 3 8 13 9 13
15 12 9 9 11 9 18 10 9 8 6 4 2 4 4 6 5 5 5 7 3 4 2 2 2 2 2 1 1 2 2 5 5 5 5 14 2 16 13 18 14 9 14 12
16 13 10 11 15 18 20 17 8 6 3 4 3 2 4 4 6 8 6 6 3 3 2 2 1 0 2 1 1 1 2 2 1 4 7 9 14 14 19 15 13 13 13 18
17 14 11 15 16 6 3 3 8 5 5 4 3 1 2 4 5 8 8 5 3 2 2 1 1 1 2 1 0 2 2 2 6 5 11 15 17 16 16 9 15 14 14 15
17 13 14 16 11 1 4 2 3 5 4 3 3 2 3 4 2 2 3 4 2 2 1 3 2 3 2 1 1 2 6 9 12 10 8 11 6 10 17 16 19 22 25 21
16 18 18 13 15 9 5 9 5 6 6 4 3 2 3 7 2 2 3 2 2 4 2 1 1 1 1 2 4 6 11 9 10 7 11 14 18 18 13 17 15 16 15 9
23 23 24 7 2 3 4 7 8 8 2 3 3 3 2 5 2 1 1 1 3 1 1 3 2 2 3 4 4 9 9 5 10 11 11 11 14 15 14 12 13 13 10 6
31 15 3 2 3 9 4 1 3 4 3 3 3 2 1 2 2 2 0 0 1 1 1 1 1 2 4 4 5 5 5 7 8 11 10 13 13 13 15 12 12 12 6 6
7 3 2 7 7 1 4 3 4 3 4 2 2 3 1 1 2 1 1 1 1 2 3 3 2 3 3 5 5 4 4 7 7 7 9 11 11 10 11 11 11 12 13 8
10 14 10 5 3 3 6 1 3 3 3 0 3 2 2 1 1 1 2 2 2 4 3 2 2 3 5 4 4 6 7 7 7 10 9 11 13 13 10 10 10 12 14 13
12 5 4 3 3 6 5 2 3 1 2 2 1 1 1 1 1 1 1 2 3 4 3 4 3 1 2 5 5 6 10 11 10 11 11 12 11 11 10 10 9 10 13 14
3 4 4 2 2 1 3 4 4 2 3 5 3 1 1 1 2 1 2 4 2 3 2 4 2 4 4 5 4 4 8 7 7 10 15 13 13 12 11 12 9 7 10 14
3 3 3 2 3 3 2 2 2 2 4 3 3 2 2 1 1 2 2 3 4 4 3 3 4 4 5 6 5 6 7 6 6 13 12 15 16 13 12 14 12 8 6 12
3 4 5 2 3 1 1 2 1 3 3 2 2 2 3 1 1 3 5 3 4 4 3 3 3 4 6 6 7 9 12 12 13 15 16 17 16 14 14 14 15 15 8 7
3 1 2 3 3 4 3 3 3 8 3 2 3 3 6 2 2 3 4 4 3 3 3 2 4 5 7 8 12 13 13 14 17 18 18 19 20 19 14 10 14 12 9 8
Wind_Direction
328 327 338 341 335 124 151 111 88 111 150 263 346 238 206 248 40 170 237 169 96 71 113 155 182 209 254 176 164 132 197 120 130 134 89 125 105 171 151 146 234 131 139 257
338 336 344 343 339 181 150 98 89 102 132 313 284 282 286 14 27 36 26 68 85 146 176 112 219 163 276 167 161 164 185 94 104 117 157 352 188 201 152 122 71 188 192 251
347 342 351 347 340 163 148 106 104 127 212 18 260 335 353 26 30 47 18 34 78 115 81 21 148 118 109 156 100 91 90 109 149 177 186 131 171 203 168 161 157 196 235 267
310 350 3 355 358 158 175 36 177 190 175 237 230 8 324 309 42 12 15 30 34 13 109 83 95 80 89 53 27 37 78 95 74 314 109 127 179 196 202 217 227 223 262 258
165 9 17 11 26 156 95 129 137 48 121 270 157 357 356 37 329 40 1 81 24 47 89 60 175 135 133 178 70 62 6 110 91 9 20 210 250 240 220 228 242 254 263 276
128 44 37 36 23 187 114 125 93 104 322 359 121 14 32 26 280 8 63 299 104 60 19 305 292 273 130 153 139 138 152 138 117 238 340 290 278 237 213 208 231 226 248 253
128 88 62 52 48 79 125 143 123 108 52 79 74 324 107 47 2 105 348 23 78 19 323 336 43 56 84 86 57 120 132 110 86 182 3 356 256 358 206 216 265 234 271 278
129 111 85 70 68 62 108 129 127 120 102 55 39 21 24 14 351 39 38 19 358 298 16 62 55 358 62 38 47 81 101 113 83 117 194 285 12 27 124 151 314 200 235 271
134 122 103 83 83 85 85 82 92 97 122 2 289 31 27 55 354 47 19 6 322 20 68 79 141 193 193 178 93 67 111 98 103 135 130 256 240 259 202 119 286 225 215 269
139 125 107 82 96 94 89 69 100 88 101 354 38 82 75 26 195 118 343 333 354 349 82 96 143 228 206 142 164 160 130 153 179 183 233 285 251 276 150 79 287 336 281 280
142 131 113 81 106 105 104 81 83 101 97 26 28 47 63 16 18 88 332 359 2 10 69 75 6 64 314 34 173 177 171 150 206 168 194 282 353 2 38 300 310 308 328 294
141 134 114 84 116 128 106 93 89 92 88 138 101 76 71 77 73 158 12 118 47 25 80 65 72 40 27 335 272 338 72 183 224 186 219 73 12 282 99 19 297 321 318 324
147 141 124 96 115 115 129 119 111 101 88 60 53 7 50 45 50 5 98 35 241 64 192 112 36 107 13 335 309 305 340 24 274 359 47 335 302 47 0 318 319 315 313 320
150 146 130 123 129 118 138 130 122 98 110 100 306 15 43 29 62 65 77 140 126 116 73 62 97 119 34 199 307 318 313 358 338 281 330 338 283 333 329 322 328 325 319 317
151 150 138 138 134 114 107 103 97 119 104 136 151 85 27 33 60 71 93 104 84 55 51 58 80 2 37 352 84 351 13 58 351 265 300 276 285 306 308 312 311 318 317 316
154 153 147 156 156 140 38 75 53 90 93 103 107 255 24 31 82 86 72 70 72 76 100 98 68 147 81 26 34 232 168 251 236 290 304 296 288 284 286 291 309 302 309 303
155 153 149 157 168 315 57 114 121 117 95 93 87 14 339 348 59 27 44 43 70 90 87 48 17 16 13 67 7 314 315 334 313 309 316 304 282 298 299 291 297 306 306 294
153 141 143 148 124 106 83 62 103 87 99 64 95 289 22 9 24 57 358 65 42 21 80 39 76 12 331 240 239 311 323 310 303 326 317 295 289 293 310 320 312 308 308 294
145 138 136 119 67 65 110 95 71 61 71 110 80 115 243 354 23 328 93 45 72 243 160 189 188 172 207 226 300 314 317 320 300 310 312 310 321 314 317 319 318 305 308 307
139 134 135 85 90 120 134 83 33 20 343 33 95 112 347 74 27 349 155 170 118 107 234 334 225 247 265 262 248 253 297 297 304 321 326 324 322 326 323 321 312 304 302 319
159 126 85 119 123 156 36 49 61 331 32 29 135 150 153 289 88 247 186 225 151 114 231 175 233 262 226 228 256 264 272 283 280 259 283 306 305 311 318 318 325 334 341 334
173 123 116 113 45 47 79 1 321 56 190 40 120 160 160 289 56 267 261 241 193 234 140 117 247 234 222 256 283 297 289 286 284 282 274 294 307 312 309 310 321 331 333 329
125 79 75 74 312 53 100 179 309 6 167 165 90 36 85 17 83 281 256 242 234 112 189 222 229 194 273 284 294 285 286 286 279 285 286 276 284 293 306 304 312 329 327 329
91 113 74 104 312 210 169 173 169 199 118 122 111 97 120 83 74 264 246 247 182 252 262 243 256 231 293 302 268 284 303 306 288 285 292 282 277 271 289 295 296 315 318 319
95 88 118 156 131 76 157 173 113 106 133 120 110 35 120 206 159 214 280 233 244 218 238 240 245 262 288 285 286 292 292 298 298 298 288 281 278 270 276 289 283 279 299 314
87 77 98 85 76 38 172 164 142 192 136 99 61 98 60 208 204 215 215 151 229 249 216 233 251 285 301 303 307 301 292 289 291 297 296 295 285 270 274 282 285 275 267 291
74 57 15 104 87 148 161 157 178 166 108 154 115 104 207 150 189 229 208 214 224 221 243 243 255 267 280 283 289 291 296 300 303 306 308 302 302 293 274 265 267 273 265 276